Location: Franzen
(48.6167°N, 15.3833°E)
Time: 17:55:08
(UTC+00:00)

A-11 Canister half - Pass Details

Date: 28 July 2021
Orbit: 1515 x 1685 km, 47.2° (Epoch: 19 September)

Event Time Altitude Azimuth Distance (km) Brightness Sun altitude
Rises 00:59:45 0° 288° (WNW) 4,943 11.6 -17.7°
Reaches altitude 10° 01:04:16 10° 272° (W) 3,952 10.9 -17.4°
Enters shadow 01:10:06 18° 236° (SW) 3,334 10.2 -16.9°
Maximum altitude 01:10:21 18° 234° (SW) 3,332 - -16.9°
Drops below altitude 10° 01:16:24 10° 196° (SSW) 3,906 - -16.3°
Sets 01:20:52 0° 179° (S) 4,865 - -15.9°
